Location: *
(44.3333°N, 4.3031°E)
Time: 17:01:04
(UTC+00:00)

Daily predictions for brighter satellites

Satellite Brightness Start Highest point End
(mag) Time Altitude Azimuth Time Altitude Azimuth Time Altitude Azimuth
USA 267 3.6 19:45:45 10° ESE 19:52:12 65° NNE 19:58:41 10° NW
Cosmos 1455 4.3 19:52:03 10° NNW 19:55:16 27° W 19:58:28 10° SSW
SL-08 RB Rocket 3.7 19:51:25 10° SSE 19:55:52 71° ENE 20:00:21 10° N
Cosmos 1766 Rocket 4.1 19:59:04 10° SSE 20:03:05 39° E 20:07:07 10° NNE
CZ-2C R/B 3.7 19:59:27 10° NE 20:03:44 25° E 20:07:56 10° SSE
Gbstr 26 Del rocket 2.7 20:00:50 10° SW 20:05:01 70° SE 20:08:46 10° ENE
H-2A R/B 2.5 19:59:52 10° S 20:05:18 72° WSW 20:10:42 10° NNW
Meteor 2-2 Rocket 4.5 19:59:46 10° NNW 20:05:24 75° W 20:11:03 10° S
USA 245 4.3 20:05:05 10° E 20:06:03 12° ENE 20:07:01 10° NE
Cosmos 2322 Rocket 2.7 20:01:18 10° S 20:06:34 40° ESE 20:11:52 10° NE
SL-24 R/B 4.2 20:03:56 10° NNE 20:08:16 81° ESE 20:13:08 10° S
Cosmos 1408 Rocket 4.3 20:07:15 10° SSE 20:11:05 32° E 20:14:55 10° NNE
SL-16 R/B 2.4 20:06:16 10° S 20:11:42 50° ESE 20:17:10 10° NE
Cosmos 1238 Rocket 4.4 20:06:58 10° SSE 20:13:13 50° E 20:19:34 10° NNE
Lacrosse 5 4.4 20:13:17 10° WNW 20:17:12 22° NNW 20:21:07 10° NE
ISS -2.8 20:15:46 10° SSW 20:18:39 27° SE 20:21:32 10° ENE
ERBS 3.8 20:17:14 10° WNW 20:20:08 28° SW 20:23:02 10° S
Cosmos 1825 4.2 20:18:47 10° ESE 20:20:20 12° E 20:21:58 10° ENE
BREEZE-M DEB (TANK) 1.9 20:19:53 10° W 20:21:57 53° NNW 20:24:26 10° ENE
DMSP B5D2-2 4.1 20:17:31 10° NNE 20:22:44 68° ESE 20:27:54 10° S
Resurs 01 Rocket 2.3 20:20:31 10° S 20:24:52 56° W 20:29:14 10° NNW
ARGOS 4.0 20:19:46 10° S 20:25:00 50° W 20:30:16 10° NNW
Cosmos 371 Rocket 3.9 20:20:31 10° NNW 20:25:18 55° WSW 20:30:02 10° S
Thor Agena Rocket 4.4 20:23:08 10° NE 20:27:29 28° E 20:31:19 12° SSE
EO 1 Del DPAF 3.9 20:25:34 10° NNE 20:29:06 36° E 20:32:22 11° SSE
Cosmos 1271 Rocket 4.4 20:25:35 10° SW 20:29:12 36° WNW 20:32:53 10° N
Cosmos 1844 Rocket 4.2 20:25:48 10° N 20:30:26 25° NE 20:35:02 10° ESE
Cosmos 2251 Rocket 3.6 20:25:22 10° SSW 20:30:37 86° WNW 20:35:54 10° NNE
Cosmos 2058 3.6 20:27:59 10° SSW 20:32:07 59° W 20:36:18 10° N
Cosmos 921 Rocket 3.4 20:28:52 10° N 20:33:00 49° ENE 20:36:15 16° SE
Cosmos 2263 Rocket 2.3 20:29:19 10° NNW 20:35:02 82° WSW 20:40:16 12° SSE
Lacrosse 5 rocket 4.3 20:32:14 10° NW 20:35:18 17° N 20:38:21 10° NE
In-Cosmos 22 Rocket 4.1 20:30:12 10° S 20:35:34 74° E 20:41:07 10° NNE
Iridium 4 Rocket 3.8 20:32:32 10° N 20:38:30 76° E 20:44:16 10° S
ERS-1 Rocket 3.4 20:37:31 15° SE 20:41:27 50° ENE 20:46:19 10° N
Cosmos 1072 Rocket 4.5 20:36:35 10° S 20:42:43 87° E 20:48:51 10° N
Cosmos 1151 Rocket 3.1 20:40:11 10° N 20:44:34 66° E 20:47:56 17° SSE
Terra 3.0 20:44:26 16° ESE 20:47:25 29° ENE 20:51:29 10° N
Cosmos 1892 2.6 20:45:05 10° S 20:48:56 81° E 20:52:47 10° N
Cosmos 304 Rocket 3.9 20:46:34 10° NNW 20:51:24 74° WSW 20:55:15 16° S
ADEOS Rocket 3.3 20:46:03 10° N 20:51:38 62° WNW 20:57:01 10° SSW
Cosmos 1328 Rocket 3.5 20:47:40 10° N 20:52:05 88° W 20:55:36 16° S
Cosmos 1461 4.0 20:49:35 10° NW 20:53:10 33° WSW 20:56:11 13° S
SL-4 R/B 3.3 20:49:30 10° S 20:53:32 27° SE 20:57:33 10° ENE
SPOT 1/Viking Rocket 3.6 20:51:35 18° SSE 20:55:24 65° ENE 21:00:34 10° N
Cosmos 44 Rocket 3.3 20:51:09 10° SSW 20:56:16 75° ESE 21:01:20 10° NE
Cosmos 1992 Rocket 4.2 20:54:19 10° NNW 20:59:32 69° WSW 21:03:36 17° S
Timation 1 Rocket 4.4 20:53:35 10° NNW 20:59:37 82° WSW 21:04:02 19° SSE
USA 215 4.4 20:54:41 10° NE 21:00:51 46° NNW 21:07:02 10° W
Cosmos 1242 Rocket 3.8 20:58:20 10° SSW 21:01:49 42° WNW 21:05:21 10° N
Cosmos 1500 Rocket 3.8 20:59:23 20° SSE 21:02:16 52° E 21:06:37 10° NNE
Nadezhda 4 Rocket 4.0 20:56:15 10° N 21:02:35 76° E 21:07:22 18° SSE
COSMOS 2428 4.1 21:01:40 18° ESE 21:02:58 19° E 21:06:55 10° NE
CZ-2C R/B 4.2 20:59:47 10° SSW 21:04:54 41° W 21:09:48 10° NNW
Cosmos 2034 Rocket 4.0 20:59:04 10° S 21:05:17 87° E 21:11:37 10° N
TIMED 4.5 21:07:28 10° SSW 21:11:50 87° WNW 21:16:13 10° NNE
Tiangong 2 1.7 21:13:48 10° W 21:16:44 37° SSW 21:16:58 36° S
Cosmos 1092 Rocket 4.0 21:13:28 10° N 21:19:43 67° E 21:23:30 25° SSE
Cosmos 2360 Rocket 2.1 21:14:58 10° SSW 21:20:36 77° ESE 21:26:16 10° NNE
DELTA 2 R/B (1) 4.0 21:15:35 10° SW 21:20:43 39° SSE 21:24:12 19° ESE
Cosmos 1933 3.2 21:24:46 10° N 21:28:51 87° ENE 21:30:29 35° S
Cosmos 1743 Rocket 3.7 21:25:50 18° SSW 21:29:06 71° W 21:33:28 10° N
SPOT 5 3.0 21:26:24 25° S 21:29:25 80° WSW 21:34:21 10° NNW
Cosmos 1606 2.8 21:29:02 10° N 21:32:46 60° E 21:33:43 43° SE
Cosmos 1607 4.5 21:27:24 10° NNW 21:33:22 50° NE 21:37:04 23° ESE
USA 267 3.9 21:31:37 23° S 21:35:23 43° SW 21:41:35 10° WNW
Cosmos 1515 Rocket 4.5 21:34:26 10° NNW 21:38:35 43° W 21:41:09 20° SSW
Cosmos 1408 3.3 21:36:50 21° SSW 21:39:04 52° W 21:42:44 10° N
IGS 5A 4.1 21:37:07 25° SSW 21:39:13 49° W 21:43:17 10° NNW
Cosmos 1634 Rocket 4.0 21:37:16 25° S 21:41:03 72° E 21:47:16 10° NNE
Cosmos 676 Rocket 4.2 21:42:05 34° SSE 21:43:56 50° ESE 21:49:00 10° NNE
CZ-2C R/B 3.6 21:39:15 10° N 21:44:12 44° WNW 21:49:05 10° SW
NOSS 3-1 (C) 3.3 21:41:02 19° SSW 21:45:02 61° ESE 21:51:14 10° NE
Cosmos 1023 Rocket 4.4 21:43:33 31° S 21:45:55 64° ESE 21:51:05 10° NNE
Meteor 2-3 Rocket 3.7 21:42:57 25° S 21:46:25 82° E 21:52:16 10° NNE
Helios 1A 4.2 21:45:26 25° E 21:46:28 29° ENE 21:50:04 10° N
Meteor 1-26 Rocket 4.1 21:44:26 10° N 21:50:07 87° W 21:52:41 34° S
Cosmos 2333 4.2 21:47:23 27° S 21:50:27 64° ESE 21:56:05 10° NNE
Cosmos 2322 Rocket 3.9 21:45:31 10° WSW 21:50:41 34° NW 21:55:52 10° N
ASTEX 1 3.4 21:46:04 10° NNE 21:51:02 64° E 21:52:47 39° SSE
Cosmos 2219 Rocket 2.5 21:49:55 35° SSE 21:51:36 45° ESE 21:56:59 10° NE
Gbstr 26 Del rocket 4.5 21:48:30 10° W 21:52:01 32° NNW 21:55:26 10° NE
Cosmos 2333 Rocket 2.5 21:52:22 36° SSE 21:54:04 46° ESE 21:59:30 10° NE
Cosmos 2026 Rocket 3.9 21:48:10 10° N 21:54:16 84° E 21:57:11 33° SSE
Cosmos 1805 Rocket 3.4 21:53:02 44° S 21:54:22 78° E 21:58:44 10° N
SL-8 R/B 3.7 21:50:04 10° WNW 21:54:52 80° NNE 21:57:03 32° ESE
ISS -2.8 21:51:57 10° W 21:55:12 49° NNW 21:58:28 10° NE
Cosmos 1825 3.1 21:53:35 25° SW 21:55:25 45° WNW 21:59:04 10° N
SL-16 R/B 4.2 21:51:13 10° WSW 21:56:04 28° NW 22:00:56 10° N
Cosmos 2278 Rocket 3.5 21:53:09 10° N 21:58:09 31° NE 22:01:04 20° E
Cosmos 2228 Rocket 4.2 21:54:52 10° NNW 21:59:06 38° W 22:01:22 23° SW
Cosmos 1954 Rocket 4.0 21:57:21 38° S 21:59:13 64° ESE 22:04:27 10° NNE
Lacrosse 5 4.2 21:57:52 10° NW 22:01:43 21° N 22:05:33 10° ENE
Cosmos 2322 3.8 22:02:23 17° SSW 22:06:52 76° WNW 22:12:34 10° NNE
Cosmos 407 Rocket 4.2 22:05:36 13° SW 22:10:15 54° WNW 22:15:31 10° NNE
Cosmos 1140 Rocket 3.5 22:08:25 29° SSW 22:11:09 80° WNW 22:16:23 10° NNE
MOS 1 Rocket 3.5 22:08:21 10° N 22:12:45 63° WNW 22:14:49 31° SW
ALOS 2 4.1 22:12:21 22° E 22:13:20 24° ENE 22:16:50 10° NNE
Cosmos 1666 Rocket 3.5 22:13:53 57° SSE 22:14:38 70° E 22:19:07 10° NNE
Cosmos 1844 Rocket 2.9 22:09:09 10° NNW 22:14:44 60° WSW 22:16:43 38° S
BREEZE-M DEB (TANK) 3.8 22:12:49 10° WNW 22:14:47 27° N 22:15:59 18° NE
Lacrosse 5 rocket 3.9 22:12:27 10° NNW 22:15:58 21° NNE 22:19:25 10° ENE
Cosmos 1633 Rocket 3.0 22:17:27 58° ESE 22:17:51 61° E 22:22:09 10° NNE
Mayak -1.2 22:14:30 10° NNE 22:18:41 58° E 22:18:55 57° ESE
Cosmos 292 Rocket 4.3 22:16:55 10° NNW 22:21:36 49° WSW 22:22:48 40° SSW
IRAS Rocket 4.4 22:20:03 39° S 22:22:04 67° WSW 22:27:41 10° NNW
USA 229 DEB 3.9 22:15:40 10° SW 22:22:13 68° NW 22:29:07 10° NE
USA 229 3.9 22:15:46 10° SW 22:22:20 69° NW 22:29:14 10° NE
GP-B 4.1 22:19:18 10° NNE 22:23:20 32° E 22:23:31 32° E
Terra 3.0 22:23:20 26° SW 22:25:03 34° W 22:29:23 10° NNW
NOSS 3-1 (A) 3.2 22:22:47 34° SSW 22:25:21 77° SE 22:31:43 10° NE
ARGOS Delta rocket 4.1 22:27:58 44° E 22:28:34 48° ENE 22:32:55 10° N
Cosmos 1862 Rocket 3.8 22:26:42 10° N 22:30:57 53° ENE 22:31:16 51° E
Cosmos 1782 3.1 22:27:14 10° NNW 22:31:13 58° W 22:31:34 55° WSW
BREEZE-M DEB (TANK) 3.3 22:28:51 10° WSW 22:32:54 80° NNW 22:40:45 10° ENE
SL-4 R/B 2.5 22:28:08 10° WSW 22:32:59 77° NNW 22:37:43 10° ENE
Meteor 1-10 Rocket 4.2 22:28:07 10° N 22:33:47 82° E 22:35:23 49° SSE
Spot 4 3.7 22:33:22 60° SSE 22:34:16 89° E 22:39:05 10° NNW
Cosmos 1470 Rocket 3.9 22:34:20 49° E 22:34:20 49° E 22:38:34 10° NNE
Helios 1B rocket 3.2 22:31:20 10° NNE 22:34:48 38° E 22:34:48 38° E
ATLAS CENTAUR R/B 3.0 22:31:09 10° NNW 22:35:28 33° NE 22:37:09 25° E
NOSS 2-3 (E) 3.9 22:37:18 52° ESE 22:37:18 52° ESE 22:41:57 10° NE
Cosmos 1862 3.3 22:38:08 68° ENE 22:38:08 68° ENE 22:41:57 10° NNE
Sich 1 3.7 22:37:16 39° WSW 22:38:20 49° WNW 22:42:30 10° N
NOSS 2-3 (D) 4.0 22:40:08 50° ESE 22:40:08 50° ESE 22:44:40 10° NE
Cosmos 1400 Rocket 3.8 22:36:52 10° N 22:40:41 35° ENE 22:40:48 35° ENE
SeaSat 1 2.7 22:37:09 10° NE 22:41:57 48° ESE 22:42:01 48° ESE
Cosmos 2266 Rocket 4.1 22:38:00 10° N 22:44:23 69° E 22:46:19 46° SSE
Cosmos 1763 Rocket 4.2 22:40:20 10° N 22:45:19 45° ENE 22:46:40 37° ESE
Cosmos 1812 3.7 22:42:01 10° N 22:45:24 38° ENE 22:45:24 38° ENE
Cosmos 468 Rocket 4.2 22:40:57 10° NNW 22:46:11 61° ENE 22:47:23 48° ESE
COSMOS 2428 3.0 22:43:37 28° SW 22:46:38 66° WNW 22:52:22 10° NNE
SL-16 R/B 3.8 22:48:07 20° E 22:48:07 20° E 22:51:56 10° NE
COSMOS 2455 3.8 22:48:25 30° ESE 22:48:25 30° ESE 22:53:32 10° NE
Cosmos 2084 Rocket 3.8 22:44:12 10° NW 22:48:15 52° WSW 22:48:15 52° WSW
ERS-2 3.9 22:48:35 23° ENE 22:48:36 23° ENE 22:51:33 10° NNE
Meteor 2-6 Rocket 4.4 22:49:30 10° NNW 22:54:51 61° W 22:56:11 47° SSW
Cosmos 1818 3.8 22:49:52 10° NW 22:55:12 54° WSW 22:55:56 50° SSW
Cosmos 1980 3.7 22:56:55 57° SSE 22:57:53 67° ESE 23:03:32 10° NNE
Cosmos 2237 Rocket 2.1 23:04:36 59° SSE 23:05:31 72° ESE 23:11:09 10° NNE
DELTA 2 R/B (1) 4.2 23:01:17 10° WSW 23:05:00 39° SW 23:05:00 39° SW
Cosmos 1570 Rocket 3.9 23:05:10 10° NNW 23:10:26 79° ENE 23:11:15 63° SE
Cosmos 1867 3.6 23:16:23 46° SW 23:18:02 76° NW 23:23:33 10° NNE
Helios 1A 4.5 23:22:03 26° W 23:22:03 26° W 23:25:31 10° NW
NOSS 2-3 (C) 4.0 23:21:21 52° WSW 23:22:19 67° NW 23:27:34 10° NE
Meteor 1-27 Rocket 4.0 23:18:31 10° NNW 23:24:20 65° W 23:25:36 51° SSW
Cosmos 1633 4.0 23:26:52 32° WNW 23:26:52 32° WNW 23:29:46 10° N
Cosmos 1814 Rocket 4.0 23:26:28 10° NNW 23:31:37 70° ENE 23:32:22 60° ESE
ISS -1.2 23:29:41 10° WNW 23:32:26 23° N 23:35:09 10° NE
Cosmos 2297 4.1 23:29:22 10° NNW 23:34:56 55° ENE 23:36:42 40° ESE
Cosmos 2219 Rocket 3.7 23:31:35 14° WSW 23:35:43 31° NW 23:40:44 10° N
Meteor 1-20 Rocket 4.5 23:36:45 51° SE 23:37:40 57° E 23:43:23 10° NNE
Cosmos 2242 Rocket 4.4 23:33:26 10° NNW 23:37:42 42° W 23:37:46 42° W
NOSS 0 Rocket 4.4 23:35:28 32° WSW 23:38:14 57° WNW 23:44:20 10° NNE
Cosmos 2333 Rocket 3.8 23:34:18 14° WSW 23:38:32 31° NW 23:43:32 10° N
Okean 1 4.4 23:36:38 10° N 23:40:17 35° ENE 23:40:17 35° ENE
Cosmos 2278 Rocket 2.6 23:37:01 10° NW 23:42:24 45° WSW 23:42:53 44° WSW
SL-19 R/B 4.2 23:43:34 60° SSE 23:44:41 90° SW 23:50:33 10° NNW
Cosmos 1703 Rocket 3.6 23:40:22 10° NNW 23:44:40 68° W 23:44:40 68° W
Lacrosse 5 2.7 23:40:51 10° NW 23:45:45 47° NNE 23:48:50 21° E
Cosmos 1943 Rocket 4.1 23:44:28 10° N 23:48:51 23° NE 23:53:12 10° ESE
ATLAS 5 CENTAUR R/B 3.7 23:43:55 10° NNW 23:49:07 36° NE 23:54:57 10° ESE
ALOS 2 3.6 23:49:45 35° W 23:49:45 35° W 23:53:32 10° NNW
Cosmos 192 4.1 23:47:14 10° NNW 23:52:12 90° SW 23:52:29 80° SSE
Cosmos 2221 Rocket 3.9 23:48:11 10° N 23:52:40 58° E 23:52:49 57° E
Mayak 1.2 23:51:27 10° NNW 23:53:47 15° WNW 23:55:30 12° W
